CAPE
1987 1426 1300 1404 219 152 154 243 344 352 442 429 355 327 696 1276 1527 1768 2032 2429 2656 2947 3017 2544 2434 2258 2303 2116 2183 2278 1272 2210 2013 1804 1845 2482 2542 2456 2577 2927 2571 2805 2810 2237 2377 2220 2444 2785 2447 3003 3507 3647 3278 4206 4108 4073 4252 4522 4205 3958 4715 4040 3373
1758 1951 1595 1720 941 120 158 321 448 454 448 490 412 399 774 1261 1440 1759 1927 2172 2496 2759 2928 2740 2394 2332 2247 2103 2032 2353 1617 1974 2140 2720 1964 2361 2694 2100 2599 2722 2758 2790 2563 2253 2375 2179 2834 3205 2659 2985 3380 3873 3670 3438 4340 4383 4312 4318 4237 4188 4532 4671 4579
1311 1584 1662 1520 1984 542 110 113 314 496 519 505 478 324 621 1070 1342 1747 1855 2171 2325 2587 2772 2787 2441 2366 2070 2154 1869 2283 1866 2114 2024 2432 2237 2540 2534 2660 2312 2594 2525 2632 2694 2760 3280 2679 2807 2571 2506 2483 3049 3663 3572 3642 3944 4228 3799 3511 3615 3913 3675 4238 3973
1146 1252 1344 1332 1553 2167 806 200 195 525 414 398 310 278 618 1031 1419 1822 1810 2230 2114 2505 2441 2575 2426 2320 2043 1993 1999 2074 1924 2055 1938 2247 1940 2194 2438 2141 2452 2321 2375 2237 2430 2504 2760 2505 2486 2084 2375 2712 3646 3109 3082 3440 3729 3660 3555 3299 3922 3438 3510 3610 3648
1124 1143 1226 1223 1741 1876 2042 285 241 504 423 188 191 450 724 1079 1440 1828 1907 2219 2025 2358 2300 2295 2184 2268 2019 1890 2091 1875 1957 1910 1850 1920 1700 1730 1999 1964 2191 2226 2181 1987 2313 1762 1999 2209 3104 2372 2696 2935 2850 2930 3125 3444 3564 3482 3249 3024 3568 3436 3754 3483 3504
1025 1097 1173 1268 1829 1998 1955 1077 234 430 354 149 166 236 893 1059 1539 1770 1900 2257 2031 2171 2328 2294 1943 2025 1998 1900 1967 1829 1783 1797 1660 1692 1451 1361 1537 1896 1497 1986 2124 1745 2179 1838 2315 1940 2572 2344 2415 2821 2894 3140 3006 3640 3524 3449 3352 3298 3416 3634 3603 3336 3602
1054 915 941 1210 1726 1932 1682 1484 174 234 102 173 157 621 924 1109 1330 1583 1782 2029 2124 2034 2246 2179 1997 1953 2030 1817 1716 1867 1678 1698 1584 1816 1703 2215 1833 1767 1703 1770 1814 1682 1820 2028 2018 1906 1979 1966 2016 2216 2670 2552 2626 2452 2812 2873 2962 3004 2931 3430 3375 2969 3241
1098 860 676 996 1777 2024 1488 1181 1275 348 613 378 213 1036 807 1056 1176 1323 1532 1757 2016 2001 2086 2059 2030 2020 1969 1855 1656 1744 1662 1771 1515 1628 1478 1696 1801 1532 1828 1816 1888 1771 1618 1846 1886 1913 1754 2562 2185 2222 2181 2254 2250 2264 2170 2638 2804 2810 2886 3240 3214 3181 3320
958 990 1127 1407 1807 1601 1105 888 755 715 965 902 897 958 957 1514 1166 1084 1321 1498 1721 1979 1939 1799 1650 1980 1902 1860 1813 1985 1796 1761 1546 1439 1331 1228 1785 1494 1517 1643 1699 1656 1575 1482 1962 1894 1995 2116 2326 2161 2077 2134 2171 1933 2554 2546 2730 2831 2663 3061 3203 3210 2975
1322 1081 1194 1581 1686 1529 1099 581 751 307 556 886 1355 1611 1707 1786 2017 1345 1098 1292 1622 1597 1652 1592 1356 1529 1596 1656 1666 1576 1778 1711 1614 1333 1360 1263 1245 1397 1343 1343 1406 1502 1244 1564 1814 1606 1719 1952 1879 2228 2069 2266 2323 2771 2624 2516 2519 2499 2356 2511 2870 3041 2935
1303 1161 1183 1220 1594 1564 1278 765 432 291 634 1304 2016 2396 2378 2203 2536 2568 1742 2062 1541 1301 1248 1226 1088 1206 1298 1283 1297 1148 1388 1496 1606 1537 1384 1210 1170 932 1050 1166 1314 1484 1229 1172 1203 1488 1374 1866 2056 2931 2826 2676 2620 2488 2484 2586 2461 2420 2450 2384 2639 2832 2821
1502 1931 1497 1242 1423 1472 1249 845 494 836 1602 2125 2379 2342 2117 2047 2174 2219 2131 2375 2748 2360 2150 1254 1994 1069 1165 1056 1200 1007 1040 1189 1312 1426 1368 1243 1105 914 749 676 1134 1570 1520 1371 1322 1371 1407 1839 1856 2923 2523 2414 2430 2463 2228 2301 2538 2561 2729 2583 2331 2657 2718
1590 1575 1406 1352 1310 1154 1076 1952 1475 2264 2119 1833 2056 1921 1844 1878 1758 1703 1754 2263 2246 2198 1747 1682 2690 2071 1023 1080 950 1066 1059 970 1064 1101 1148 1124 977 708 607 582 491 1232 1682 1645 1532 1459 1580 1760 1698 2302 2386 2146 2215 2420 2526 2424 2654 2768 2828 2868 2647 2268 2646
1470 1520 1690 1500 1310 1042 1202 1514 1660 2076 1954 1514 1532 1618 1884 1972 1610 1279 1643 1822 1851 1482 1580 2027 2090 2731 2770 2012 1833 1753 1839 1525 1466 1313 778 988 860 685 504 379 306 401 1501 1610 1455 1496 1424 1480 1539 1763 2115 2096 2030 2190 2462 2826 2867 2790 2980 3070 2825 2624 2468
1352 1390 1474 1534 1404 1132 1143 1446 1302 1589 1805 2347 1988 2029 1914 1525 1206 1076 913 918 1274 1108 1430 1885 2065 2100 2672 2551 2015 2006 1838 1903 1955 2785 3674 2823 2102 1914 2131 2557 1259 905 974 1333 1514 1412 1371 1284 1329 1478 1661 1764 1929 2222 2444 2574 2708 2740 2941 3053 2925 2746 2580
1169 1172 1244 1266 1329 1232 1041 1121 1199 1439 2031 1848 1735 1759 1617 1587 1768 1784 1585 1305 1054 1288 1461 1781 2027 1878 2223 2362 2110 1179 889 1889 3199 3251 2596 2714 3164 3318 3200 2911 2651 1891 1491 1694 1505 1322 1270 1314 1316 1317 1388 1432 1661 1987 2415 2202 2019 1990 2120 2800 2633 2394 2105
1090 1104 931 1135 1241 1301 1214 1037 1204 1190 1419 1592 1560 1623 1482 1431 1582 1660 1516 1542 1546 1570 1638 1548 1728 1941 1938 1934 1759 1319 1073 1422 2374 2836 2201 2187 2281 2301 2588 2923 3025 2720 2173 1614 1410 1348 1229 1270 1272 1205 1063 997 1308 1560 1816 1843 1734 1583 1259 1907 2473 2542 1854
837 921 872 819 845 916 933 907 1031 1128 1174 1269 1062 1436 1591 1628 1710 1464 1374 1452 1808 1634 1726 1504 1723 1726 1722 1693 1428 1622 1315 1479 1895 2677 2270 1836 1860 1917 1920 2145 2389 2692 2414 2294 1673 1306 1560 1149 928 910 878 1095 1070 1179 1341 1449 1516 1271 1161 1372 1744 1901 1817
552 677 848 733 621 528 647 612 1018 1052 980 831 991 966 995 1023 1335 1459 1390 1498 1917 1845 1598 1466 1615 1675 1554 1485 1490 1570 1887 1876 1989 2280 2334 2041 1955 1697 1747 1880 1918 2039 2258 2329 1811 1504 1421 1696 1582 1367 1034 733 740 841 930 918 764 808 986 1134 1074 1093 1354
415 494 522 571 578 470 532 734 743 789 827 815 899 850 735 685 686 624 956 1059 1051 1003 813 1208 1734 1538 1249 962 948 884 1408 1666 1779 1973 2058 2159 2072 1899 1655 1732 1919 1882 1839 2631 1842 1595 1453 1541 1417 1082 1184 1515 1336 984 607 573 623 726 783 823 897 618 650
534 441 541 322 505 694 632 743 577 696 841 812 642 624 705 661 624 739 656 736 862 1028 1056 1009 1328 1378 1304 1230 998 1101 1517 1822 1645 1519 1418 1561 1627 1914 1857 1719 1684 1808 2265 2141 1666 1674 1628 1668 1918 1509 1119 930 882 863 834 686 676 679 603 771 887 752 461
437 502 530 387 343 363 435 624 741 768 909 773 679 637 552 616 590 616 632 582 461 543 705 905 1121 1008 1118 929 902 1147 1286 1312 1445 1527 1397 1286 1267 1258 1498 1655 1845 1796 1752 1721 1670 2036 2428 2248 2065 1712 1405 1178 943 882 878 842 854 821 785 498 321 379 393
418 364 338 380 355 372 406 492 500 503 620 723 753 764 719 691 697 688 691 681 633 568 468 675 915 958 889 917 960 920 973 990 990 1063 1109 1078 985 936 939 1020 1043 1137 1470 1487 1474 1629 1877 1978 1707 1469 1330 1223 1148 1120 1070 952 854 878 955 929 438 504 1506
253 396 335 210 23 0 255 288 372 377 386 420 457 586 600 609 586 555 596 576 523 464 534 592 615 572 650 696 805 835 898 958 952 901 878 846 857 807 821 787 772 746 922 1057 1018 1214 1205 1582 1526 1403 1248 1224 1149 988 927 1026 983 827 626 526 450 633 1701
308 290 234 210 11 0 148 254 240 147 263 283 357 349 381 377 360 357 342 346 362 381 425 522 564 497 483 586 606 630 728 813 800 839 848 853 848 802 756 716 750 751 764 752 748 882 1092 1334 1354 1242 1176 1153 1052 1229 815 824 841 825 651 444 546 951 1725
90 194 198 179 126 5 0 0 0 0 190 317 305 241 306 359 391 412 396 412 426 454 499 542 550 480 483 498 568 591 570 138 433 447 575 682 715 698 735 729 753 799 807 761 789 814 776 832 926 1002 974 926 890 839 778 780 786 724 600 567 673 939 1608
59 0 101 118 149 1 0 0 0 0 0 88 235 310 303 256 243 243 219 247 316 366 375 456 428 375 418 459 445 407 379 389 322 343 451 490 500 504 456 479 516 605 665 665 632 669 637 614 684 676 698 724 701 679 664 681 718 720 612 576 778 954 1142
0 0 4 53 119 132 106 103 24 41 93 207 190 42 190 202 184 180 174 180 225 307 353 386 390 357 331 328 285 284 299 361 468 472 429 362 338 332 366 475 646 441 504 506 439 398 413 402 389 378 360 312 391 412 442 426 570 471 483 588 785 934 1044
0 0 0 0 22 0 0 0 0 0 0 90 150 146 89 97 187 221 248 240 247 258 322 358 376 359 327 272 276 281 298 341 400 429 337 259 177 169 106 264 536 389 513 367 377 329 285 232 228 268 277 246 170 48 181 332 430 460 436 530 692 810 927
0 0 0 0 0 0 0 0 0 0 0 0 0 0 0 116 153 156 153 217 219 272 297 326 344 340 318 299 302 302 280 286 336 323 107 114 59 42 65 12 247 261 276 448 340 165 96 59 0 0 0 0 2 0 0 89 353 456 494 390 582 664 691
0 0 0 0 0 0 0 0 0 0 0 0 0 0 0 0 0 18 120 142 173 229 249 263 251 81 276 283 285 286 287 226 210 51 42 235 210 8 98 118 155 228 229 17 197 211 147 74 142 183 161 109 14 19 2 57 264 452 427 383 462 422 391
0 0 0 0 0 0 0 0 0 0 0 0 0 0 0 0 0 0 0 0 0 0 113 201 247 247 256 254 217 201 202 241 96 0 0 0 0 0 157 236 195 224 190 162 113 112 157 153 123 91 117 168 24 6 48 255 269 372 144 270 348 341 302
0 0 0 0 0 0 0 0 0 0 0 0 0 0 0 0 0 0 0 0 0 0 0 0 0 25 0 220 213 170 108 204 200 187 100 0 0 0 18 101 156 164 194 189 165 166 76 136 93 148 169 181 34 17 48 226 278 300 298 335 336 280 245
0 0 0 0 0 0 0 0 0 0 0 0 0 0 0 0 0 0 0 0 0 0 0 0 0 0 0 0 0 94 1 2 58 95 145 143 0 0 0 0 0 0 0 0 0 150 85 18 111 93 63 31 3 1 9 106 255 269 256 219 204 195 210
0 0 0 0 0 0 0 0 0 0 0 0 0 0 0 0 0 0 0 0 0 0 0 0 0 0 0 0 0 0 0 1 0 61 45 4 0 0 0 0 0 0 0 0 0 128 88 0 0 0 0 0 0 0 0 0 106 196 179 186 185 188 177
0 0 0 0 0 0 0 0 0 0 0 0 0 0 0 0 0 0 0 0 0 0 0 0 0 0 0 0 0 0 0 0 0 0 0 0 23 0 0 0 0 0 0 0 0 0 0 0 0 0 0 0 0 0 0 0 0 0 0 0 0 0 0
0 0 0 0 0 0 0 0 0 0 0 0 0 0 0 0 0 0 0 0 0 0 0 0 0 0 0 0 0 0 0 0 0 0 0 0 0 0 5 0 0 0 0 0 0 0 0 0 0 0 0 0 0 0 0 0 0 0 0 0 0 0 0
123 74 185 62 49 0 0 0 0 0 0 0 0 0 0 0 0 0 0 0 0 0 0 0 0 0 0 0 0 0 1 0 0 0 0 1 0 0 27 32 0 0 0 0 0 0 0 0 0 0 0 0 0 0 0 0 0 0 0 0 0 0 0
Wind_Speed
12 15 19 20 14 13 13 14 15 16 16 16 16 15 15 17 16 15 14 12 12 9 7 6 6 7 7 5 4 5 4 5 2 2 2 3 2 1 1 1 2 1 1 1 4 3 4 4 3 2 1 1 2 1 2 2 2 1 1 1 3 2 3
3 7 15 21 19 12 13 15 16 16 15 15 15 15 16 17 17 17 16 15 13 10 8 8 7 8 8 7 6 6 6 5 4 3 2 3 2 2 2 3 3 2 0 1 2 4 3 3 1 1 1 1 2 2 2 2 1 1 1 1 2 1 2
7 6 7 16 20 16 13 15 16 16 14 14 14 14 16 17 18 19 18 17 15 12 10 9 8 9 9 10 9 8 7 7 6 6 4 3 2 3 2 3 3 1 1 2 1 1 2 2 2 1 1 2 2 2 2 2 2 2 2 3 2 2 2
8 7 4 10 17 20 17 16 16 18 16 15 16 16 17 16 18 20 19 19 18 15 13 11 10 9 10 11 12 11 10 8 8 8 5 5 4 3 4 4 4 2 2 3 3 2 2 0 1 1 2 2 2 2 1 3 2 2 2 2 1 1 2
10 9 7 7 11 14 18 16 18 19 18 19 20 20 19 17 19 21 20 19 19 18 16 14 12 11 11 12 12 12 12 10 9 9 7 6 6 6 6 5 5 4 4 4 3 4 4 2 2 1 1 1 2 0 1 1 1 2 2 2 1 1 1
11 10 8 9 11 14 17 18 19 21 21 22 23 24 22 19 19 21 21 20 19 19 18 17 15 15 13 12 13 13 13 12 11 10 8 9 8 8 7 7 8 7 7 5 5 4 5 4 3 3 0 1 1 1 1 1 2 2 3 2 1 1 1
10 11 10 11 14 16 18 22 20 24 23 23 26 27 24 21 19 21 20 19 19 19 18 17 17 18 16 14 14 16 14 13 11 9 9 10 9 10 9 10 9 9 9 9 6 6 5 4 3 3 2 2 2 3 2 2 2 2 3 3 2 0 1
11 11 12 12 18 21 25 28 26 25 24 25 26 27 24 22 20 21 20 18 18 17 16 16 16 19 18 16 15 17 16 15 13 11 11 12 11 12 11 11 11 11 11 9 8 7 6 5 4 4 3 4 3 2 3 2 3 3 4 3 2 1 1
15 17 19 21 23 28 33 32 32 36 28 23 25 27 26 24 21 20 20 18 18 17 15 13 13 18 18 17 15 17 18 17 16 14 12 11 12 11 12 12 11 12 12 10 10 9 7 6 6 6 5 5 5 4 4 3 3 4 4 4 4 3 3
32 28 33 31 27 27 30 28 26 29 29 22 24 27 29 28 25 21 20 20 18 16 14 12 13 15 16 16 15 16 17 18 18 15 13 11 13 12 12 12 12 12 12 13 14 12 10 9 8 8 7 7 6 6 6 6 5 5 5 6 5 5 5
27 26 19 18 23 25 24 20 19 20 20 15 20 24 27 30 29 26 22 23 20 17 15 13 15 14 14 15 15 15 17 16 17 17 14 13 13 12 13 13 13 13 12 13 14 13 12 12 13 13 11 9 8 7 8 7 7 6 6 7 8 7 7
22 24 26 28 31 29 24 22 21 19 18 19 21 21 22 25 28 28 27 27 26 23 21 16 18 14 15 15 16 15 16 16 17 17 15 13 13 13 14 14 16 16 15 14 14 16 14 14 14 15 12 10 10 10 9 9 9 8 7 8 10 9 9
28 31 29 29 26 22 21 18 19 21 19 20 23 22 23 23 25 27 28 30 28 27 26 24 23 21 18 18 17 16 16 17 17 18 16 15 14 14 15 15 15 17 17 17 16 18 17 16 15 16 14 12 12 11 11 10 10 10 10 10 10 11 12
28 29 29 28 27 26 25 25 26 23 22 23 24 25 27 27 29 29 28 28 28 28 28 26 25 27 24 23 22 20 20 20 22 22 19 17 15 15 16 16 15 17 18 19 19 19 18 17 16 16 16 14 13 13 14 13 12 12 12 13 12 13 13
27 27 28 25 24 28 29 26 27 33 30 28 28 29 28 27 26 27 29 28 29 31 30 28 27 29 31 28 26 25 24 25 25 25 25 22 21 20 21 22 21 21 20 18 21 20 19 18 18 17 16 16 15 14 15 15 14 14 14 14 15 16 16
29 29 28 23 23 25 26 26 29 31 37 35 33 33 33 30 28 27 27 27 29 30 29 28 28 30 31 33 36 37 37 34 30 29 28 29 26 25 26 26 24 24 24 22 21 21 20 20 19 19 18 17 17 16 17 22 24 25 19 15 17 18 19
29 30 30 30 28 25 27 29 28 32 36 36 38 41 41 39 36 35 34 32 32 31 28 27 27 29 32 37 38 35 31 28 25 25 26 25 24 25 27 26 25 25 24 23 24 25 26 26 25 25 24 24 23 25 25 21 16 17 16 14 12 20 19
26 28 29 29 28 28 31 30 28 30 30 31 34 35 35 33 31 34 35 34 33 29 26 25 23 23 27 34 38 37 33 30 25 20 19 23 23 24 25 26 26 26 24 24 25 25 25 24 23 23 22 23 24 26 24 21 18 16 24 23 21 20 21
34 32 33 34 31 30 32 30 29 31 34 34 34 35 35 34 33 33 31 25 21 21 20 18 17 17 19 25 30 29 24 23 20 16 19 24 25 24 25 26 26 26 25 25 24 26 27 26 25 24 23 24 26 26 23 20 21 21 21 21 22 26 24
36 33 31 32 32 32 37 35 32 32 35 33 30 30 34 33 32 33 33 30 30 29 25 21 18 19 19 20 23 23 21 19 19 18 20 24 26 28 27 27 27 25 25 27 28 28 27 26 26 26 27 28 26 25 24 25 26 23 24 23 23 25 29
39 34 32 32 34 35 35 32 28 28 30 29 26 26 28 29 28 28 31 30 32 32 30 27 23 22 21 20 20 20 19 20 21 23 28 32 31 30 29 29 30 30 31 31 31 31 29 28 28 28 28 30 30 29 29 28 28 26 30 31 30 28 30
44 38 35 33 32 29 29 29 27 26 27 29 30 27 27 28 28 31 30 28 29 28 27 25 21 18 17 19 19 18 18 19 22 25 29 32 33 33 33 34 34 34 34 34 33 33 34 34 34 33 31 31 32 32 32 32 34 33 36 36 32 29 32
40 39 42 42 40 35 29 26 28 28 25 27 30 29 26 24 26 30 28 26 25 25 25 24 22 21 19 18 18 19 17 17 18 20 22 24 27 30 32 35 37 38 36 35 35 36 37 36 37 37 37 35 34 34 34 35 35 34 34 36 34 33 32
37 37 40 44 nan nan 44 37 33 33 32 33 34 34 32 29 28 29 31 29 27 28 28 27 24 24 23 22 21 20 19 18 17 17 17 18 20 22 24 26 28 30 31 33 34 36 39 40 41 40 40 38 38 38 38 36 34 32 33 35 36 33 32
41 42 41 42 nan nan 46 40 35 37 38 38 40 40 39 37 38 40 41 40 39 36 35 32 29 27 27 25 25 25 24 22 24 24 23 22 21 20 19 19 19 22 24 28 31 34 37 39 41 42 41 42 42 41 41 36 32 32 33 35 36 34 32
nan 39 40 39 41 nan nan nan nan nan 40 37 36 37 41 44 46 48 48 47 45 41 36 33 32 31 31 29 27 27 27 26 27 27 26 25 25 25 24 23 22 23 25 26 27 28 30 31 32 32 33 33 34 37 33 31 30 31 33 36 39 37 36
nan nan 37 38 38 nan nan nan nan nan nan nan 42 42 43 44 47 48 48 47 45 42 38 34 33 34 35 34 33 32 31 28 28 30 28 27 26 27 27 25 27 28 29 29 29 29 28 27 28 28 26 23 24 26 27 27 29 29 31 37 43 48 48
nan nan nan nan 40 37 39 42 nan nan nan 47 46 nan 46 46 47 47 47 45 45 43 39 37 35 35 36 37 36 36 34 32 30 32 31 30 29 28 27 28 29 29 28 29 29 29 30 31 32 33 33 31 30 29 27 26 29 30 33 36 43 47 43
nan nan nan nan nan nan nan nan nan nan nan nan 45 44 nan nan 50 49 48 48 45 42 39 40 40 38 37 37 37 37 36 34 34 35 35 33 32 31 30 29 31 30 27 27 28 30 32 33 33 34 33 33 32 nan 28 25 26 31 30 30 34 34 30
nan nan nan nan nan nan nan nan nan nan nan nan nan nan nan 47 48 48 48 47 43 44 43 40 40 41 40 38 37 37 37 36 37 38 35 36 nan nan nan nan 33 33 32 31 32 33 nan nan nan nan nan nan nan nan nan nan 21 26 27 26 30 29 27
nan nan nan nan nan nan nan nan nan nan nan nan nan nan nan nan nan nan 48 44 43 44 44 44 44 nan 41 41 40 38 37 38 39 nan nan 44 44 nan nan 40 40 39 37 nan 35 34 35 nan 36 35 34 33 nan nan nan nan 27 30 32 35 34 36 37
nan nan nan nan nan nan nan nan nan nan nan nan nan nan nan nan nan nan nan nan nan nan 43 44 43 45 45 43 41 39 38 39 nan nan nan nan nan nan 42 44 42 40 39 40 40 40 37 35 36 nan 35 35 nan nan nan 39 37 36 35 34 36 36 38
nan nan nan nan nan nan nan nan nan nan nan nan nan nan nan nan nan nan nan nan nan nan nan nan nan nan nan 44 46 44 39 38 38 42 44 nan nan nan nan 44 44 43 42 43 42 42 nan 42 nan 37 35 38 nan nan nan 40 40 38 37 37 36 35 33
nan nan nan nan nan nan nan nan nan nan nan nan nan nan nan nan nan nan nan nan nan nan nan nan nan nan nan nan nan nan nan nan nan nan 43 45 nan nan nan nan nan nan nan nan nan 39 nan nan 43 nan nan nan nan nan nan 42 41 39 36 35 34 32 31
nan nan nan nan nan nan nan nan nan nan nan nan nan nan nan nan nan nan nan nan nan nan nan nan nan nan nan nan nan nan nan nan nan nan nan nan nan nan nan nan nan nan nan nan nan 41 nan nan nan nan nan nan nan nan nan nan 41 38 35 34 33 33 32
nan nan nan nan nan nan nan nan nan nan nan nan nan nan nan nan nan nan nan nan nan nan nan nan nan nan nan nan nan nan nan nan nan nan nan nan nan nan nan nan nan nan nan nan nan nan nan nan nan nan nan nan nan nan nan nan nan nan nan nan nan nan nan
nan nan nan nan nan nan nan nan nan nan nan nan nan nan nan nan nan nan nan nan nan nan nan nan nan nan nan nan nan nan nan nan nan nan nan nan nan nan nan nan nan nan nan nan nan nan nan nan nan nan nan nan nan nan nan nan nan nan nan nan nan nan nan
24 nan 26 nan nan nan nan nan nan nan nan nan nan nan nan nan nan nan nan nan nan nan nan nan nan nan nan nan nan nan nan nan nan nan nan nan nan nan nan nan nan nan nan nan nan nan nan nan nan nan nan nan nan nan nan nan nan nan nan nan nan nan nan
Wind_Direction
217 224 229 218 236 246 241 251 256 254 261 256 265 277 262 271 272 273 277 276 271 269 257 258 258 262 259 261 237 219 243 237 248 298 305 306 302 332 337 295 311 237 204 117 114 114 118 110 130 51 58 323 4 28 35 56 80 31 115 114 117 83 74
255 254 239 224 218 242 239 247 257 256 255 255 263 272 266 273 272 271 276 278 274 276 269 255 257 254 262 263 241 229 246 236 236 244 264 293 292 312 291 303 314 358 110 51 94 117 120 112 138 93 86 46 28 14 345 356 22 354 354 78 79 74 63
328 325 253 216 215 222 249 254 259 262 266 260 266 267 268 271 270 268 273 273 273 270 265 256 253 251 257 261 257 244 250 240 243 251 257 276 287 288 287 284 322 344 120 204 196 109 120 120 155 113 110 63 45 20 345 351 3 14 0 9 12 28 68
323 322 288 211 215 219 227 260 267 265 273 269 270 265 260 275 264 264 267 269 275 271 273 268 257 256 251 260 261 257 258 246 250 252 261 250 264 260 263 270 289 281 239 227 194 184 162 118 148 150 93 81 99 35 13 9 1 2 334 330 3 38 53
327 305 276 242 229 228 220 245 265 265 272 266 266 256 257 268 260 264 261 264 273 273 275 277 268 261 253 257 258 260 262 261 253 249 256 254 259 261 253 275 275 287 264 251 226 191 199 226 220 215 85 95 127 92 59 92 306 325 283 284 327 72 58
323 313 287 258 245 234 228 231 260 264 268 264 261 253 257 262 260 268 264 264 263 262 265 270 274 267 265 264 261 267 262 258 255 249 252 252 266 262 265 256 262 262 263 262 245 230 215 211 211 214 220 155 155 258 127 169 225 272 271 281 290 226 30
300 306 284 258 244 238 230 235 249 258 262 259 255 248 252 253 263 262 261 264 263 266 266 269 270 272 265 267 262 270 274 267 267 255 255 249 264 264 264 248 259 255 257 246 247 239 235 210 209 217 218 218 200 200 201 200 231 244 242 264 261 249 210
268 271 269 260 246 237 225 222 220 234 251 255 255 249 252 252 256 261 260 262 261 265 266 266 266 268 263 267 260 271 276 270 270 255 253 246 259 255 253 247 247 247 256 257 252 251 245 233 235 234 235 222 231 222 215 210 235 251 254 252 255 241 248
251 247 243 242 242 239 231 221 213 211 207 250 254 250 251 246 252 258 258 261 256 266 266 265 261 266 266 264 260 263 271 269 267 262 253 251 255 258 258 253 248 241 248 260 253 254 252 245 242 250 243 235 235 235 233 255 249 246 256 259 267 270 254
219 226 227 228 242 249 244 235 230 229 210 212 248 252 251 245 242 247 253 254 255 264 265 264 252 266 269 261 262 262 267 262 261 267 257 255 251 261 261 261 256 250 243 248 250 253 244 251 248 249 253 251 245 246 258 268 260 251 255 269 273 269 270
240 245 252 248 242 252 258 254 248 249 242 235 262 261 252 248 242 240 247 245 250 253 256 253 241 261 267 261 263 261 266 264 260 261 258 254 249 254 258 261 268 261 257 249 244 250 248 244 242 248 253 257 255 257 258 266 274 270 268 270 271 274 269
250 243 241 243 234 232 235 231 228 221 221 236 256 260 255 248 244 239 239 240 240 245 245 243 234 259 260 258 253 259 260 264 258 259 260 254 248 250 253 253 259 268 263 260 253 250 254 249 241 247 250 252 251 255 257 258 262 270 269 268 272 281 278
229 234 239 248 258 257 256 233 239 218 224 232 243 246 245 239 240 239 237 237 236 239 245 239 229 237 250 249 250 253 257 259 257 258 256 252 248 251 251 255 253 264 270 264 257 253 254 249 248 247 250 251 252 251 254 257 260 263 264 263 263 268 272
233 236 240 237 236 231 224 224 219 226 227 229 234 236 234 231 230 228 226 232 235 237 240 240 234 229 230 242 241 242 246 246 245 243 245 251 248 247 247 248 253 255 265 269 268 263 258 254 252 252 253 252 252 250 249 253 256 258 260 261 265 265 264
225 234 238 240 236 231 225 223 223 206 208 219 232 234 236 237 241 241 234 223 225 229 232 235 238 236 230 229 234 235 235 235 235 234 235 237 243 246 242 236 240 242 252 269 269 265 262 258 258 257 258 256 257 256 252 258 260 262 263 261 264 263 263
218 221 227 230 237 237 237 231 226 214 210 206 211 220 220 219 222 229 233 235 232 231 230 232 234 239 237 236 234 226 217 217 228 236 235 234 234 234 240 240 240 243 242 241 245 252 250 257 257 255 255 257 257 256 254 246 237 220 207 267 264 268 269
225 221 219 215 224 233 233 231 224 226 223 219 215 211 208 203 205 210 216 220 224 227 229 232 234 235 236 237 237 239 238 230 220 226 237 238 235 241 244 243 242 246 247 249 249 250 251 250 249 247 245 248 248 245 244 255 265 273 248 211 262 274 273
237 234 231 225 218 220 233 230 218 219 228 235 228 224 220 216 214 209 206 212 215 219 224 230 233 234 236 239 240 234 227 228 227 225 238 247 243 241 244 244 244 247 249 251 253 253 254 254 252 252 250 251 252 251 250 251 257 249 238 241 245 242 255
245 241 240 237 231 230 233 229 223 216 219 222 222 224 224 224 222 217 217 218 223 227 230 234 235 239 248 250 243 241 234 231 230 224 229 239 243 245 249 249 246 244 246 252 251 252 254 253 250 249 250 252 255 261 259 256 261 255 257 252 250 257 256
245 245 242 240 238 232 232 227 223 220 221 223 220 222 225 226 223 220 221 221 219 220 221 223 226 231 240 252 249 244 237 244 244 241 240 240 241 245 249 249 249 248 247 251 251 249 248 250 251 250 249 250 255 262 263 259 253 258 266 266 265 265 264
239 237 238 234 234 231 229 233 235 230 225 227 226 224 227 228 231 231 232 233 233 229 225 218 216 220 225 227 239 248 246 241 243 241 241 243 244 248 249 250 251 251 249 248 251 255 255 253 252 252 255 258 258 258 261 259 254 261 263 263 266 270 272
237 233 230 229 233 230 228 228 234 237 233 231 237 238 239 241 240 238 238 238 239 238 238 236 229 224 224 231 229 238 242 240 236 234 235 240 241 244 247 248 249 248 247 248 249 251 255 254 254 255 254 255 259 262 263 257 248 250 258 262 260 265 273
240 233 229 226 225 225 225 232 238 238 235 234 237 238 239 243 242 237 233 230 230 236 240 241 236 231 228 233 234 235 241 246 245 242 239 239 242 244 245 247 248 251 252 251 249 250 252 254 256 258 260 262 264 266 263 260 252 250 257 262 261 262 269
245 242 234 229 nan nan 230 227 229 233 237 243 246 245 243 242 242 239 235 233 238 245 248 244 240 241 239 237 239 238 241 249 253 247 242 240 242 244 246 249 251 253 254 256 256 255 255 254 257 259 263 267 270 270 269 262 254 253 256 260 263 265 262
248 245 239 235 nan nan 238 237 236 238 235 233 234 234 239 243 245 245 246 249 254 257 255 252 249 248 250 248 246 248 248 248 249 246 244 245 245 247 252 256 258 256 258 260 257 255 254 254 257 257 259 262 266 270 265 260 257 257 258 258 258 259 260
nan 247 244 239 239 nan nan nan nan nan 236 234 236 240 240 242 246 249 253 255 257 257 254 252 252 253 252 253 252 248 247 246 248 248 247 246 247 246 250 255 259 264 266 263 263 260 256 253 254 256 261 263 260 256 255 256 254 251 252 258 258 258 258
nan nan 248 244 239 nan nan nan nan nan nan nan 238 238 239 243 246 248 251 255 256 256 257 255 253 253 254 253 251 248 243 239 240 243 243 245 251 250 245 245 253 256 258 260 260 259 258 257 255 256 254 253 253 253 253 259 260 257 252 251 254 257 259
nan nan nan nan 247 242 241 241 nan nan nan 241 239 nan 241 244 246 248 249 251 255 258 256 254 253 253 253 251 249 246 242 239 245 248 246 243 243 247 247 246 247 250 252 255 256 258 257 254 251 251 249 247 247 247 247 254 261 265 260 254 254 256 256
nan nan nan nan nan nan nan nan nan nan nan nan 243 243 nan nan 248 249 250 249 247 250 256 256 252 249 251 252 250 248 242 239 240 246 247 242 241 240 238 239 245 247 246 247 250 254 256 256 254 252 251 250 250 nan 250 251 258 262 261 257 255 250 241
nan nan nan nan nan nan nan nan nan nan nan nan nan nan nan 247 250 251 251 250 249 249 248 251 254 253 250 247 248 248 244 239 239 239 246 248 nan nan nan nan 238 244 243 246 252 256 nan nan nan nan nan nan nan nan nan nan 254 257 259 258 253 242 234
nan nan nan nan nan nan nan nan nan nan nan nan nan nan nan nan nan nan 250 249 249 248 248 248 249 nan 251 251 248 248 246 244 241 nan nan 246 243 nan nan 237 238 241 240 nan 244 254 258 nan 258 257 257 257 nan nan nan nan 248 246 244 243 246 237 237
nan nan nan nan nan nan nan nan nan nan nan nan nan nan nan nan nan nan nan nan nan nan 248 248 249 249 247 249 249 249 248 246 nan nan nan nan nan nan 240 241 238 237 238 242 245 244 248 256 257 nan 257 257 nan nan nan 243 243 245 244 243 242 244 245
nan nan nan nan nan nan nan nan nan nan nan nan nan nan nan nan nan nan nan nan nan nan nan nan nan nan nan 246 247 244 246 250 247 243 242 nan nan nan nan 244 245 241 239 240 237 241 nan 245 nan 249 254 256 nan nan nan 246 245 245 245 246 249 252 252
nan nan nan nan nan nan nan nan nan nan nan nan nan nan nan nan nan nan nan nan nan nan nan nan nan nan nan nan nan nan nan nan nan nan 244 242 nan nan nan nan nan nan nan nan nan 239 nan nan 247 nan nan nan nan nan nan 248 249 249 249 250 252 254 255
nan nan nan nan nan nan nan nan nan nan nan nan nan nan nan nan nan nan nan nan nan nan nan nan nan nan nan nan nan nan nan nan nan nan nan nan nan nan nan nan nan nan nan nan nan 243 nan nan nan nan nan nan nan nan nan nan 250 252 253 254 255 256 255
nan nan nan nan nan nan nan nan nan nan nan nan nan nan nan nan nan nan nan nan nan nan nan nan nan nan nan nan nan nan nan nan nan nan nan nan nan nan nan nan nan nan nan nan nan nan nan nan nan nan nan nan nan nan nan nan nan nan nan nan nan nan nan
nan nan nan nan nan nan nan nan nan nan nan nan nan nan nan nan nan nan nan nan nan nan nan nan nan nan nan nan nan nan nan nan nan nan nan nan nan nan nan nan nan nan nan nan nan nan nan nan nan nan nan nan nan nan nan nan nan nan nan nan nan nan nan
275 nan 271 nan nan nan nan nan nan nan nan nan nan nan nan nan nan nan nan nan nan nan nan nan nan nan nan nan nan nan nan nan nan nan nan nan nan nan nan nan nan nan nan nan nan nan nan nan nan nan nan nan nan nan nan nan nan nan nan nan nan nan nan